Time,TemperatureF,DewpointF,PressureIn,WindDirection,WindDirectionDegrees,WindSpeedMPH,WindSpeedGustMPH,Humidity,HourlyPrecipIn,Conditions,Clouds,dailyrainin,SolarRadiationWatts/m^2,SoftwareType,DateUTC
2013-02-05 00:04:00,42.6,39.6,30.00,NE,51,0.0,0.0,89,0.00,,,0.00,0,Wunderground v.1.15,2013-02-05 08:04:00,
2013-02-05 00:10:00,42.4,39.4,30.00,NE,51,0.0,0.0,89,0.00,,,0.00,0,Wunderground v.1.15,2013-02-05 08:10:00,
2013-02-05 00:16:00,42.3,39.3,29.99,NE,51,0.0,0.0,89,0.00,,,0.00,0,Wunderground v.1.15,2013-02-05 08:16:00,
2013-02-05 00:22:00,42.1,39.1,30.00,NE,51,0.0,0.0,89,0.00,,,0.00,0,Wunderground v.1.15,2013-02-05 08:22:00,
2013-02-05 00:28:00,42.0,39.0,30.00,NE,51,0.0,0.0,89,0.00,,,0.00,0,Wunderground v.1.15,2013-02-05 08:28:00,
2013-02-05 00:34:00,41.8,38.8,30.00,NE,51,0.0,0.0,89,0.00,,,0.00,0,Wunderground v.1.15,2013-02-05 08:34:00,
2013-02-05 00:40:00,41.6,38.9,29.99,NE,51,0.0,0.0,90,0.00,,,0.00,0,Wunderground v.1.15,2013-02-05 08:40:00,
2013-02-05 00:46:00,41.4,38.4,29.99,NE,51,0.0,0.0,89,0.00,,,0.00,0,Wunderground v.1.15,2013-02-05 08:46:00,
2013-02-05 00:52:00,41.3,38.3,29.99,NE,51,0.0,0.0,89,0.00,,,0.00,0,Wunderground v.1.15,2013-02-05 08:52:00,
2013-02-05 00:58:00,41.1,38.4,29.99,NE,51,0.0,0.0,90,0.00,,,0.00,0,Wunderground v.1.15,2013-02-05 08:58:00,
2013-02-05 01:04:00,40.9,38.2,29.99,NE,51,0.0,0.0,90,0.00,,,0.00,0,Wunderground v.1.15,2013-02-05 09:04:00,
2013-02-05 01:10:00,40.6,37.9,29.99,NE,51,0.0,0.0,90,0.00,,,0.00,0,Wunderground v.1.15,2013-02-05 09:10:00,
2013-02-05 01:16:00,40.5,37.8,29.99,NE,51,0.0,0.0,90,0.00,,,0.00,0,Wunderground v.1.15,2013-02-05 09:16:00,
2013-02-05 01:22:00,40.2,37.5,30.00,NE,51,0.0,0.0,90,0.00,,,0.00,0,Wunderground v.1.15,2013-02-05 09:22:00,
2013-02-05 01:28:00,40.2,37.5,30.00,NE,51,0.0,0.0,90,0.00,,,0.00,0,Wunderground v.1.15,2013-02-05 09:28:00,
2013-02-05 01:34:00,40.3,37.6,30.00,NE,51,0.0,0.0,90,0.00,,,0.00,0,Wunderground v.1.15,2013-02-05 09:34:00,
2013-02-05 01:40:00,40.4,37.7,30.00,NE,51,0.0,0.0,90,0.00,,,0.00,0,Wunderground v.1.15,2013-02-05 09:40:00,
2013-02-05 01:46:00,40.4,37.7,30.00,NE,51,0.0,0.0,90,0.00,,,0.00,0,Wunderground v.1.15,2013-02-05 09:46:00,
2013-02-05 01:52:00,40.5,37.8,30.00,NE,51,0.0,0.0,90,0.00,,,0.00,0,Wunderground v.1.15,2013-02-05 09:52:00,
2013-02-05 01:58:00,40.4,37.7,30.00,NE,51,0.0,0.0,90,0.00,,,0.00,0,Wunderground v.1.15,2013-02-05 09:58:00,
2013-02-05 02:04:00,40.3,37.6,30.00,NE,51,0.0,0.0,90,0.00,,,0.00,0,Wunderground v.1.15,2013-02-05 10:04:00,
2013-02-05 02:10:00,40.1,37.4,30.00,NE,51,0.0,0.0,90,0.00,,,0.00,0,Wunderground v.1.15,2013-02-05 10:10:00,
2013-02-05 02:16:00,40.0,37.3,30.00,NE,51,0.0,0.0,90,0.00,,,0.00,0,Wunderground v.1.15,2013-02-05 10:16:00,
2013-02-05 02:22:00,39.9,37.2,30.00,NE,51,0.0,0.0,90,0.00,,,0.00,0,Wunderground v.1.15,2013-02-05 10:22:00,
2013-02-05 02:28:00,39.8,37.1,30.00,NE,51,0.0,0.0,90,0.00,,,0.00,0,Wunderground v.1.15,2013-02-05 10:28:00,
2013-02-05 02:34:00,39.8,37.4,29.99,NE,51,0.0,0.0,91,0.00,,,0.00,0,Wunderground v.1.15,2013-02-05 10:34:00,
2013-02-05 02:40:00,39.8,37.4,29.99,NE,51,0.0,0.0,91,0.00,,,0.00,0,Wunderground v.1.15,2013-02-05 10:40:00,
2013-02-05 02:46:00,39.9,37.5,29.99,NE,51,0.0,0.0,91,0.00,,,0.00,0,Wunderground v.1.15,2013-02-05 10:46:00,
2013-02-05 02:52:00,40.0,37.6,29.99,NE,51,0.0,0.0,91,0.00,,,0.00,0,Wunderground v.1.15,2013-02-05 10:52:00,
2013-02-05 02:58:00,40.0,37.6,30.00,NE,51,0.0,0.0,91,0.00,,,0.00,0,Wunderground v.1.15,2013-02-05 10:58:00,
2013-02-05 03:04:00,40.0,37.6,29.99,NE,51,0.0,0.0,91,0.00,,,0.00,0,Wunderground v.1.15,2013-02-05 11:04:00,
2013-02-05 03:10:00,40.1,37.7,29.99,NE,51,0.0,0.0,91,0.00,,,0.00,0,Wunderground v.1.15,2013-02-05 11:10:00,
2013-02-05 03:16:00,40.1,37.7,29.99,NE,51,0.0,0.0,91,0.00,,,0.01,0,Wunderground v.1.15,2013-02-05 11:16:00,
2013-02-05 03:22:00,40.1,37.7,29.99,NE,51,0.0,0.0,91,0.00,,,0.01,0,Wunderground v.1.15,2013-02-05 11:22:00,
2013-02-05 03:28:00,39.9,37.5,29.98,NE,51,0.0,0.0,91,0.00,,,0.01,0,Wunderground v.1.15,2013-02-05 11:28:00,
2013-02-05 03:34:00,39.7,37.3,29.98,NE,51,0.0,0.0,91,0.00,,,0.01,0,Wunderground v.1.15,2013-02-05 11:34:00,
2013-02-05 03:40:00,39.6,37.2,29.98,NE,51,0.0,0.0,91,0.00,,,0.01,0,Wunderground v.1.15,2013-02-05 11:40:00,
2013-02-05 03:46:00,39.5,37.1,29.98,NE,51,0.0,0.0,91,0.00,,,0.01,0,Wunderground v.1.15,2013-02-05 11:46:00,
2013-02-05 03:52:00,39.4,37.0,29.98,NE,51,0.0,0.0,91,0.00,,,0.01,0,Wunderground v.1.15,2013-02-05 11:52:00,
2013-02-05 03:58:00,39.4,37.0,29.99,NE,51,0.0,0.0,91,0.00,,,0.01,0,Wunderground v.1.15,2013-02-05 11:58:00,
2013-02-05 04:04:00,39.3,36.9,29.99,NE,51,0.0,0.0,91,0.00,,,0.01,0,Wunderground v.1.15,2013-02-05 12:04:00,
2013-02-05 04:10:00,39.3,36.9,29.99,NE,50,0.0,0.0,91,0.00,,,0.01,0,Wunderground v.1.15,2013-02-05 12:10:00,
2013-02-05 04:16:00,39.3,36.9,29.99,NE,50,0.0,0.0,91,0.00,,,0.01,0,Wunderground v.1.15,2013-02-05 12:16:00,
2013-02-05 04:22:00,39.3,36.9,29.99,NE,50,0.0,0.0,91,0.00,,,0.01,0,Wunderground v.1.15,2013-02-05 12:22:00,
2013-02-05 04:28:00,39.3,36.9,29.99,NE,50,0.0,0.0,91,0.00,,,0.01,0,Wunderground v.1.15,2013-02-05 12:28:00,
2013-02-05 04:34:00,39.1,36.7,29.99,NE,50,0.0,0.0,91,0.00,,,0.01,0,Wunderground v.1.15,2013-02-05 12:34:00,
2013-02-05 04:40:00,39.0,36.6,29.98,NE,50,0.0,0.0,91,0.00,,,0.01,0,Wunderground v.1.15,2013-02-05 12:40:00,
2013-02-05 04:46:00,38.8,36.7,29.99,NE,50,0.0,0.0,92,0.00,,,0.01,0,Wunderground v.1.15,2013-02-05 12:46:00,
2013-02-05 04:52:00,38.8,36.7,29.99,NE,50,0.0,0.0,92,0.00,,,0.01,0,Wunderground v.1.15,2013-02-05 12:52:00,
2013-02-05 04:58:00,38.9,36.8,29.99,NE,50,0.0,0.0,92,0.00,,,0.01,0,Wunderground v.1.15,2013-02-05 12:58:00,
2013-02-05 05:04:00,39.0,36.9,29.99,NE,48,0.0,0.0,92,0.00,,,0.01,0,Wunderground v.1.15,2013-02-05 13:04:00,
2013-02-05 05:10:00,38.9,36.8,29.98,North,5,0.0,2.0,92,0.00,,,0.01,0,Wunderground v.1.15,2013-02-05 13:10:00,
2013-02-05 05:16:00,38.8,36.7,29.98,NNW,331,1.0,2.0,92,0.00,,,0.01,0,Wunderground v.1.15,2013-02-05 13:16:00,
2013-02-05 05:22:00,39.0,36.9,29.98,NNW,331,1.0,1.0,92,0.00,,,0.01,0,Wunderground v.1.15,2013-02-05 13:22:00,
2013-02-05 05:28:00,39.2,37.1,29.97,NNW,331,0.0,1.0,92,0.00,,,0.01,0,Wunderground v.1.15,2013-02-05 13:28:00,
2013-02-05 05:34:00,39.1,37.0,29.97,NNW,331,0.0,0.0,92,0.00,,,0.01,0,Wunderground v.1.15,2013-02-05 13:34:00,
2013-02-05 05:40:00,39.1,37.0,29.98,NNW,331,0.0,1.0,92,0.00,,,0.01,0,Wunderground v.1.15,2013-02-05 13:40:00,
2013-02-05 05:46:00,39.0,36.9,29.98,NNW,331,0.0,1.0,92,0.00,,,0.01,0,Wunderground v.1.15,2013-02-05 13:46:00,
2013-02-05 05:52:00,38.8,36.7,29.98,NNW,331,0.0,0.0,92,0.00,,,0.01,0,Wunderground v.1.15,2013-02-05 13:52:00,
2013-02-05 05:58:00,38.7,36.6,29.98,NNW,331,0.0,0.0,92,0.00,,,0.01,0,Wunderground v.1.15,2013-02-05 13:58:00,
2013-02-05 06:04:00,38.5,36.4,29.98,NNW,331,0.0,0.0,92,0.00,,,0.01,0,Wunderground v.1.15,2013-02-05 14:04:00,
2013-02-05 06:10:00,38.3,36.2,29.98,NNW,331,0.0,0.0,92,0.00,,,0.01,0,Wunderground v.1.15,2013-02-05 14:10:00,
2013-02-05 06:16:00,38.1,36.0,29.98,NNW,331,0.0,0.0,92,0.00,,,0.01,0,Wunderground v.1.15,2013-02-05 14:16:00,
2013-02-05 06:22:00,38.1,36.0,29.98,NNW,331,0.0,0.0,92,0.00,,,0.01,0,Wunderground v.1.15,2013-02-05 14:22:00,
2013-02-05 06:28:00,37.9,35.8,29.98,NNW,331,0.0,0.0,92,0.00,,,0.01,0,Wunderground v.1.15,2013-02-05 14:28:00,
2013-02-05 06:34:00,37.8,35.7,29.99,NNW,331,0.0,0.0,92,0.00,,,0.01,0,Wunderground v.1.15,2013-02-05 14:34:00,
2013-02-05 06:40:00,37.6,35.5,29.99,NNW,331,0.0,0.0,92,0.00,,,0.01,0,Wunderground v.1.15,2013-02-05 14:40:00,
2013-02-05 06:46:00,37.5,35.4,29.99,NNW,331,0.0,0.0,92,0.00,,,0.01,0,Wunderground v.1.15,2013-02-05 14:46:00,
2013-02-05 06:52:00,37.4,35.3,29.99,NNW,331,0.0,0.0,92,0.00,,,0.01,0,Wunderground v.1.15,2013-02-05 14:52:00,
2013-02-05 06:58:00,37.2,35.1,29.99,NNW,331,0.0,0.0,92,0.00,,,0.01,0,Wunderground v.1.15,2013-02-05 14:58:00,
2013-02-05 07:04:00,37.1,35.0,29.99,NNW,331,0.0,5.0,92,0.00,,,0.01,5,Wunderground v.1.15,2013-02-05 15:04:00,
2013-02-05 07:10:00,37.0,34.9,29.99,NNW,331,0.0,0.0,92,0.00,,,0.01,7,Wunderground v.1.15,2013-02-05 15:10:00,
2013-02-05 07:16:00,37.0,34.9,29.99,NNW,331,0.0,0.0,92,0.00,,,0.01,12,Wunderground v.1.15,2013-02-05 15:16:00,
2013-02-05 07:22:00,37.0,34.9,30.00,NNW,331,0.0,0.0,92,0.00,,,0.01,19,Wunderground v.1.15,2013-02-05 15:22:00,
2013-02-05 07:28:00,37.1,35.0,30.00,NNW,331,0.0,0.0,92,0.00,,,0.01,25,Wunderground v.1.15,2013-02-05 15:28:00,
2013-02-05 07:34:00,37.3,35.2,30.00,NNW,331,0.0,0.0,92,0.00,,,0.01,32,Wunderground v.1.15,2013-02-05 15:34:00,
2013-02-05 07:40:00,37.5,35.4,30.00,NNW,331,0.0,0.0,92,0.00,,,0.01,39,Wunderground v.1.15,2013-02-05 15:40:00,
2013-02-05 07:46:00,37.9,36.1,29.99,NNW,331,0.0,0.0,93,0.00,,,0.01,44,Wunderground v.1.15,2013-02-05 15:46:00,
2013-02-05 07:52:00,38.4,36.3,29.99,NNW,331,0.0,0.0,92,0.00,,,0.01,53,Wunderground v.1.15,2013-02-05 15:52:00,
2013-02-05 07:58:00,38.7,36.9,30.00,North,355,0.0,0.0,93,0.00,,,0.01,54,Wunderground v.1.15,2013-02-05 15:58:00,
2013-02-05 08:04:00,38.9,36.8,30.00,North,9,0.0,0.0,92,0.00,,,0.01,65,Wunderground v.1.15,2013-02-05 16:04:00,
2013-02-05 08:10:00,39.0,36.9,30.00,NNE,12,0.0,0.0,92,0.00,,,0.01,63,Wunderground v.1.15,2013-02-05 16:10:00,
2013-02-05 08:16:00,39.3,37.4,30.00,NNE,26,0.0,0.0,93,0.00,,,0.01,79,Wunderground v.1.15,2013-02-05 16:16:00,
2013-02-05 08:22:00,39.6,37.5,30.01,NNE,26,0.0,0.0,92,0.00,,,0.01,91,Wunderground v.1.15,2013-02-05 16:22:00,
2013-02-05 08:28:00,40.0,38.1,30.01,NNE,26,0.0,0.0,93,0.00,,,0.01,97,Wunderground v.1.15,2013-02-05 16:28:00,
2013-02-05 08:34:00,40.4,38.3,30.01,NNE,26,0.0,0.0,92,0.00,,,0.01,137,Wunderground v.1.15,2013-02-05 16:34:00,
2013-02-05 08:40:00,40.8,38.9,30.02,NNE,26,0.0,0.0,93,0.00,,,0.01,188,Wunderground v.1.15,2013-02-05 16:40:00,
2013-02-05 08:46:00,41.3,39.4,30.02,NNE,26,0.0,0.0,93,0.00,,,0.01,232,Wunderground v.1.15,2013-02-05 16:46:00,
2013-02-05 08:52:00,41.9,40.0,30.03,NNE,26,0.0,0.0,93,0.00,,,0.01,264,Wunderground v.1.15,2013-02-05 16:52:00,
2013-02-05 08:58:00,42.3,40.4,30.03,NNE,26,0.0,0.0,93,0.00,,,0.01,243,Wunderground v.1.15,2013-02-05 16:58:00,
2013-02-05 09:04:00,42.8,40.9,30.03,NNE,26,0.0,0.0,93,0.00,,,0.01,285,Wunderground v.1.15,2013-02-05 17:04:00,
2013-02-05 09:10:00,43.1,41.2,30.02,NNE,26,0.0,0.0,93,0.00,,,0.01,355,Wunderground v.1.15,2013-02-05 17:10:00,
2013-02-05 09:16:00,43.6,41.7,30.02,NNE,26,0.0,0.0,93,0.00,,,0.01,225,Wunderground v.1.15,2013-02-05 17:16:00,
2013-02-05 09:22:00,43.9,42.0,30.02,NNE,26,0.0,2.0,93,0.00,,,0.01,264,Wunderground v.1.15,2013-02-05 17:22:00,
2013-02-05 09:28:00,44.1,42.2,30.02,NNE,26,1.0,4.0,93,0.00,,,0.01,253,Wunderground v.1.15,2013-02-05 17:28:00,
2013-02-05 09:34:00,44.5,42.6,30.02,NE,34,1.0,1.0,93,0.00,,,0.01,250,Wunderground v.1.15,2013-02-05 17:34:00,
2013-02-05 09:40:00,45.0,43.1,30.02,NE,34,0.0,3.0,93,0.00,,,0.01,236,Wunderground v.1.15,2013-02-05 17:40:00,
2013-02-05 09:46:00,45.3,43.4,30.02,NE,34,0.0,3.0,93,0.00,,,0.01,243,Wunderground v.1.15,2013-02-05 17:46:00,
2013-02-05 09:52:00,45.6,43.7,30.01,NE,34,0.0,1.0,93,0.00,,,0.01,271,Wunderground v.1.15,2013-02-05 17:52:00,
2013-02-05 09:58:00,46.1,44.2,30.01,NE,34,0.0,1.0,93,0.00,,,0.01,265,Wunderground v.1.15,2013-02-05 17:58:00,
2013-02-05 10:04:00,46.7,44.5,30.02,NE,34,0.0,3.0,92,0.00,,,0.01,253,Wunderground v.1.15,2013-02-05 18:04:00,
2013-02-05 10:10:00,47.2,45.0,30.02,NE,46,1.0,1.0,92,0.00,,,0.01,260,Wunderground v.1.15,2013-02-05 18:10:00,
2013-02-05 10:16:00,47.4,45.5,30.03,NE,46,0.0,1.0,93,0.00,,,0.01,308,Wunderground v.1.15,2013-02-05 18:16:00,
2013-02-05 10:22:00,47.4,45.2,30.03,NE,46,0.0,0.0,92,0.00,,,0.01,294,Wunderground v.1.15,2013-02-05 18:22:00,
2013-02-05 10:28:00,47.8,45.6,30.03,NE,47,0.0,3.0,92,0.00,,,0.01,371,Wunderground v.1.15,2013-02-05 18:28:00,
2013-02-05 10:34:00,48.0,45.8,30.03,NE,47,1.0,2.0,92,0.00,,,0.01,290,Wunderground v.1.15,2013-02-05 18:34:00,
2013-02-05 10:40:00,48.1,45.9,30.04,NE,47,0.0,0.0,92,0.00,,,0.01,360,Wunderground v.1.15,2013-02-05 18:40:00,
2013-02-05 10:46:00,48.5,46.3,30.03,NE,47,0.0,0.0,92,0.00,,,0.01,429,Wunderground v.1.15,2013-02-05 18:46:00,
2013-02-05 10:52:00,49.0,46.5,30.02,NE,47,0.0,0.0,91,0.00,,,0.01,499,Wunderground v.1.15,2013-02-05 18:52:00,
2013-02-05 10:58:00,49.8,47.0,30.03,NE,47,0.0,0.0,90,0.00,,,0.01,431,Wunderground v.1.15,2013-02-05 18:58:00,
2013-02-05 11:04:00,50.3,47.5,30.03,NE,43,0.0,6.0,90,0.00,,,0.01,448,Wunderground v.1.15,2013-02-05 19:04:00,
2013-02-05 11:10:00,50.4,47.0,30.03,NE,44,0.0,0.0,88,0.00,,,0.01,418,Wunderground v.1.15,2013-02-05 19:10:00,
2013-02-05 11:16:00,50.8,47.1,30.03,North,5,0.0,0.0,87,0.00,,,0.01,420,Wunderground v.1.15,2013-02-05 19:16:00,
2013-02-05 11:22:00,50.6,46.6,30.02,North,355,1.0,4.0,86,0.00,,,0.01,301,Wunderground v.1.15,2013-02-05 19:22:00,
2013-02-05 11:28:00,50.3,46.3,30.02,NNW,343,1.0,4.0,86,0.00,,,0.01,288,Wunderground v.1.15,2013-02-05 19:28:00,
2013-02-05 11:34:00,49.9,45.9,30.02,NNW,339,1.0,3.0,86,0.00,,,0.01,295,Wunderground v.1.15,2013-02-05 19:34:00,
2013-02-05 11:40:00,49.5,45.5,30.01,NNW,338,1.0,1.0,86,0.00,,,0.01,285,Wunderground v.1.15,2013-02-05 19:40:00,
2013-02-05 11:46:00,49.3,45.3,30.01,NNW,338,0.0,1.0,86,0.00,,,0.01,279,Wunderground v.1.15,2013-02-05 19:46:00,
2013-02-05 11:52:00,49.3,45.3,30.01,NNW,338,1.0,2.0,86,0.00,,,0.01,292,Wunderground v.1.15,2013-02-05 19:52:00,
2013-02-05 11:58:00,49.4,45.4,30.00,NNW,338,1.0,2.0,86,0.00,,,0.01,309,Wunderground v.1.15,2013-02-05 19:58:00,
2013-02-05 12:04:00,49.6,45.6,30.00,NNW,338,0.0,6.0,86,0.00,,,0.01,308,Wunderground v.1.15,2013-02-05 20:04:00,
2013-02-05 12:10:00,49.8,45.8,30.00,NNW,338,0.0,0.0,86,0.00,,,0.01,320,Wunderground v.1.15,2013-02-05 20:10:00,
2013-02-05 12:16:00,50.2,46.2,30.00,NNW,338,0.0,0.0,86,0.00,,,0.01,464,Wunderground v.1.15,2013-02-05 20:16:00,
2013-02-05 12:22:00,50.8,46.5,30.00,NNW,338,0.0,0.0,85,0.00,,,0.01,406,Wunderground v.1.15,2013-02-05 20:22:00,
2013-02-05 12:28:00,51.7,47.3,30.00,NNW,338,0.0,0.0,85,0.00,,,0.01,399,Wunderground v.1.15,2013-02-05 20:28:00,
2013-02-05 12:34:00,52.5,47.5,30.00,NNW,338,0.0,0.0,83,0.00,,,0.01,487,Wunderground v.1.15,2013-02-05 20:34:00,
2013-02-05 12:40:00,53.0,47.7,30.00,NNW,332,1.0,1.0,82,0.00,,,0.01,596,Wunderground v.1.15,2013-02-05 20:40:00,
2013-02-05 12:46:00,53.2,47.5,30.00,NW,317,1.0,4.0,81,0.00,,,0.01,617,Wunderground v.1.15,2013-02-05 20:46:00,
2013-02-05 12:52:00,53.5,47.5,30.00,NW,317,1.0,2.0,80,0.00,,,0.01,327,Wunderground v.1.15,2013-02-05 20:52:00,
2013-02-05 12:58:00,53.3,47.0,29.99,West,263,2.0,6.0,79,0.00,,,0.01,668,Wunderground v.1.15,2013-02-05 20:58:00,
2013-02-05 13:04:00,53.5,47.1,29.99,West,270,2.0,5.0,79,0.00,,,0.01,731,Wunderground v.1.15,2013-02-05 21:04:00,
2013-02-05 13:10:00,54.0,47.6,29.99,West,270,1.0,1.0,79,0.00,,,0.01,605,Wunderground v.1.15,2013-02-05 21:10:00,
2013-02-05 13:16:00,54.5,47.4,29.99,West,277,1.0,1.0,77,0.00,,,0.01,626,Wunderground v.1.15,2013-02-05 21:16:00,
2013-02-05 13:22:00,55.2,48.1,29.98,West,277,0.0,0.0,77,0.00,,,0.01,615,Wunderground v.1.15,2013-02-05 21:22:00,
2013-02-05 13:28:00,55.4,47.6,29.98,West,267,0.0,0.0,75,0.00,,,0.01,585,Wunderground v.1.15,2013-02-05 21:28:00,
2013-02-05 13:34:00,55.5,47.3,29.98,West,267,1.0,4.0,74,0.00,,,0.01,490,Wunderground v.1.15,2013-02-05 21:34:00,
2013-02-05 13:40:00,55.0,46.5,29.97,WSW,244,1.0,2.0,73,0.00,,,0.01,469,Wunderground v.1.15,2013-02-05 21:40:00,
2013-02-05 13:46:00,54.6,46.8,29.98,WSW,243,1.0,2.0,75,0.00,,,0.01,380,Wunderground v.1.15,2013-02-05 21:46:00,
2013-02-05 13:52:00,54.1,46.3,29.98,SW,232,1.0,3.0,75,0.00,,,0.01,345,Wunderground v.1.15,2013-02-05 21:52:00,
2013-02-05 13:58:00,53.7,46.3,29.97,SW,231,1.0,3.0,76,0.00,,,0.01,464,Wunderground v.1.15,2013-02-05 21:58:00,
2013-02-05 14:04:00,53.8,46.8,29.97,SW,233,1.0,8.0,77,0.00,,,0.01,612,Wunderground v.1.15,2013-02-05 22:04:00,
2013-02-05 14:10:00,54.5,47.1,29.97,SW,234,1.0,1.0,76,0.00,,,0.01,510,Wunderground v.1.15,2013-02-05 22:10:00,
2013-02-05 14:16:00,54.9,47.1,29.97,SW,234,1.0,3.0,75,0.00,,,0.01,359,Wunderground v.1.15,2013-02-05 22:16:00,
2013-02-05 14:22:00,54.8,47.0,29.97,SW,236,1.0,2.0,75,0.00,,,0.01,524,Wunderground v.1.15,2013-02-05 22:22:00,
2013-02-05 14:28:00,54.7,46.6,29.97,SW,236,1.0,2.0,74,0.00,,,0.01,455,Wunderground v.1.15,2013-02-05 22:28:00,
2013-02-05 14:34:00,55.2,47.4,29.97,SW,232,0.0,1.0,75,0.00,,,0.01,526,Wunderground v.1.15,2013-02-05 22:34:00,
2013-02-05 14:40:00,55.5,47.3,29.97,SW,232,0.0,0.0,74,0.00,,,0.01,475,Wunderground v.1.15,2013-02-05 22:40:00,
2013-02-05 14:46:00,55.9,47.4,29.97,SW,232,0.0,0.0,73,0.00,,,0.01,473,Wunderground v.1.15,2013-02-05 22:46:00,
2013-02-05 14:52:00,56.1,47.2,29.97,SW,230,1.0,3.0,72,0.00,,,0.01,443,Wunderground v.1.15,2013-02-05 22:52:00,
2013-02-05 14:58:00,56.1,47.2,29.98,SW,230,0.0,3.0,72,0.00,,,0.01,392,Wunderground v.1.15,2013-02-05 22:58:00,
2013-02-05 15:04:00,56.1,46.8,29.98,SW,230,0.0,7.0,71,0.00,,,0.01,445,Wunderground v.1.15,2013-02-05 23:04:00,
2013-02-05 15:10:00,56.6,47.3,29.97,SW,230,0.0,0.0,71,0.00,,,0.01,406,Wunderground v.1.15,2013-02-05 23:10:00,
2013-02-05 15:16:00,57.2,47.5,29.97,SW,230,0.0,0.0,70,0.00,,,0.01,410,Wunderground v.1.15,2013-02-05 23:16:00,
2013-02-05 15:22:00,57.5,47.0,29.98,SW,230,0.0,0.0,68,0.00,,,0.01,397,Wunderground v.1.15,2013-02-05 23:22:00,
2013-02-05 15:28:00,57.8,47.3,29.98,SW,230,0.0,0.0,68,0.00,,,0.01,380,Wunderground v.1.15,2013-02-05 23:28:00,
2013-02-05 15:34:00,57.4,46.5,29.97,SW,230,0.0,0.0,67,0.00,,,0.01,359,Wunderground v.1.15,2013-02-05 23:34:00,
2013-02-05 15:40:00,57.4,46.5,29.98,SW,230,0.0,0.0,67,0.00,,,0.01,338,Wunderground v.1.15,2013-02-05 23:40:00,
2013-02-05 15:46:00,57.8,47.3,29.98,SW,230,0.0,0.0,68,0.00,,,0.01,316,Wunderground v.1.15,2013-02-05 23:46:00,
2013-02-05 15:52:00,57.9,46.6,29.98,SW,230,0.0,0.0,66,0.00,,,0.01,301,Wunderground v.1.15,2013-02-05 23:52:00,
2013-02-05 15:58:00,57.9,47.0,29.98,SW,230,0.0,0.0,67,0.00,,,0.01,281,Wunderground v.1.15,2013-02-05 23:58:00,
2013-02-05 16:04:00,58.4,47.5,29.98,SW,230,0.0,7.0,67,0.00,,,0.01,264,Wunderground v.1.15,2013-02-06 00:04:00,
2013-02-05 16:10:00,58.4,47.1,29.98,SW,230,0.0,0.0,66,0.00,,,0.01,244,Wunderground v.1.15,2013-02-06 00:10:00,
2013-02-05 16:16:00,58.3,47.4,29.98,SW,230,0.0,0.0,67,0.00,,,0.01,221,Wunderground v.1.15,2013-02-06 00:16:00,
2013-02-05 16:22:00,58.4,47.1,29.98,SW,230,0.0,0.0,66,0.00,,,0.01,195,Wunderground v.1.15,2013-02-06 00:22:00,
2013-02-05 16:28:00,58.2,46.9,29.98,SW,230,0.0,0.0,66,0.00,,,0.01,172,Wunderground v.1.15,2013-02-06 00:28:00,
2013-02-05 16:34:00,57.6,46.7,29.98,SW,230,0.0,0.0,67,0.00,,,0.01,148,Wunderground v.1.15,2013-02-06 00:34:00,
2013-02-05 16:40:00,57.4,46.9,29.98,SW,230,0.0,0.0,68,0.00,,,0.01,123,Wunderground v.1.15,2013-02-06 00:40:00,
2013-02-05 16:46:00,57.3,46.8,29.98,SW,230,0.0,0.0,68,0.00,,,0.01,102,Wunderground v.1.15,2013-02-06 00:46:00,
2013-02-05 16:52:00,57.1,46.6,29.98,SW,225,0.0,2.0,68,0.00,,,0.01,84,Wunderground v.1.15,2013-02-06 00:52:00,
2013-02-05 16:58:00,57.0,46.9,29.98,SW,225,0.0,2.0,69,0.00,,,0.01,67,Wunderground v.1.15,2013-02-06 00:58:00,
2013-02-05 17:04:00,56.6,46.5,29.98,SW,225,0.0,3.0,69,0.00,,,0.01,51,Wunderground v.1.15,2013-02-06 01:04:00,
2013-02-05 17:10:00,56.2,46.5,29.99,SW,225,0.0,0.0,70,0.00,,,0.01,25,Wunderground v.1.15,2013-02-06 01:10:00,
2013-02-05 17:16:00,55.8,46.5,29.98,SW,225,0.0,0.0,71,0.00,,,0.01,19,Wunderground v.1.15,2013-02-06 01:16:00,
2013-02-05 17:22:00,55.4,46.2,29.99,SW,225,0.0,0.0,71,0.00,,,0.01,16,Wunderground v.1.15,2013-02-06 01:22:00,
2013-02-05 17:28:00,55.0,46.1,29.99,SW,225,0.0,0.0,72,0.00,,,0.01,11,Wunderground v.1.15,2013-02-06 01:28:00,
2013-02-05 17:34:00,54.6,46.1,29.99,SW,225,0.0,0.0,73,0.00,,,0.01,7,Wunderground v.1.15,2013-02-06 01:34:00,
2013-02-05 17:40:00,54.2,46.1,29.99,SW,225,0.0,0.0,74,0.00,,,0.01,0,Wunderground v.1.15,2013-02-06 01:40:00,
2013-02-05 17:46:00,53.8,46.4,29.98,SW,225,0.0,0.0,76,0.00,,,0.01,0,Wunderground v.1.15,2013-02-06 01:46:00,
2013-02-05 17:52:00,53.3,46.3,29.98,SW,225,0.0,0.0,77,0.00,,,0.01,0,Wunderground v.1.15,2013-02-06 01:52:00,
2013-02-05 17:58:00,52.8,46.1,29.98,SW,225,0.0,0.0,78,0.00,,,0.01,0,Wunderground v.1.15,2013-02-06 01:58:00,
2013-02-05 18:04:00,52.5,45.8,29.99,SW,225,0.0,3.0,78,0.00,,,0.01,0,Wunderground v.1.15,2013-02-06 02:04:00,
2013-02-05 18:10:00,52.2,45.9,29.99,SW,225,0.0,0.0,79,0.00,,,0.01,0,Wunderground v.1.15,2013-02-06 02:10:00,
2013-02-05 18:16:00,51.7,45.4,29.99,SW,225,0.0,0.0,79,0.00,,,0.01,0,Wunderground v.1.15,2013-02-06 02:16:00,
2013-02-05 18:22:00,51.3,45.3,29.99,SW,225,0.0,0.0,80,0.00,,,0.01,0,Wunderground v.1.15,2013-02-06 02:22:00,
2013-02-05 18:28:00,50.9,45.3,29.99,SW,225,0.0,0.0,81,0.00,,,0.01,0,Wunderground v.1.15,2013-02-06 02:28:00,
2013-02-05 18:34:00,50.7,45.4,29.99,SW,225,0.0,0.0,82,0.00,,,0.01,0,Wunderground v.1.15,2013-02-06 02:34:00,
2013-02-05 18:40:00,50.4,45.1,29.99,SW,225,0.0,0.0,82,0.00,,,0.01,0,Wunderground v.1.15,2013-02-06 02:40:00,
2013-02-05 18:46:00,50.2,44.9,29.99,SW,225,0.0,0.0,82,0.00,,,0.01,0,Wunderground v.1.15,2013-02-06 02:46:00,
2013-02-05 18:52:00,50.1,45.1,30.00,SW,225,0.0,0.0,83,0.00,,,0.01,0,Wunderground v.1.15,2013-02-06 02:52:00,
2013-02-05 18:58:00,50.1,45.1,30.00,SW,225,0.0,0.0,83,0.00,,,0.01,0,Wunderground v.1.15,2013-02-06 02:58:00,
2013-02-05 19:04:00,50.0,45.0,30.00,SW,225,0.0,0.0,83,0.00,,,0.01,0,Wunderground v.1.15,2013-02-06 03:04:00,
2013-02-05 19:10:00,49.9,44.9,30.00,SW,225,0.0,0.0,83,0.00,,,0.01,0,Wunderground v.1.15,2013-02-06 03:10:00,
2013-02-05 19:16:00,49.8,44.8,30.00,SW,225,0.0,0.0,83,0.00,,,0.01,0,Wunderground v.1.15,2013-02-06 03:16:00,
2013-02-05 19:22:00,49.5,44.6,30.00,SW,225,0.0,0.0,83,0.00,,,0.01,0,Wunderground v.1.15,2013-02-06 03:22:00,
2013-02-05 19:28:00,49.2,44.3,30.00,SW,225,0.0,0.0,83,0.00,,,0.01,0,Wunderground v.1.15,2013-02-06 03:28:00,
2013-02-05 19:34:00,48.9,44.3,30.00,SW,225,0.0,0.0,84,0.00,,,0.01,0,Wunderground v.1.15,2013-02-06 03:34:00,
2013-02-05 19:40:00,48.5,43.9,30.00,SW,225,0.0,0.0,84,0.00,,,0.01,0,Wunderground v.1.15,2013-02-06 03:40:00,
2013-02-05 19:46:00,48.2,43.6,30.01,SW,225,0.0,0.0,84,0.00,,,0.01,0,Wunderground v.1.15,2013-02-06 03:46:00,
2013-02-05 19:52:00,47.9,43.6,30.01,SW,225,0.0,0.0,85,0.00,,,0.01,0,Wunderground v.1.15,2013-02-06 03:52:00,
2013-02-05 19:58:00,47.6,43.3,30.01,SW,225,0.0,0.0,85,0.00,,,0.01,0,Wunderground v.1.15,2013-02-06 03:58:00,
2013-02-05 20:04:00,47.3,43.0,30.01,SW,225,0.0,0.0,85,0.00,,,0.01,0,Wunderground v.1.15,2013-02-06 04:04:00,
2013-02-05 20:10:00,47.0,42.7,30.01,SW,225,0.0,0.0,85,0.00,,,0.01,0,Wunderground v.1.15,2013-02-06 04:10:00,
2013-02-05 20:16:00,46.8,42.8,30.01,SW,225,0.0,0.0,86,0.00,,,0.01,0,Wunderground v.1.15,2013-02-06 04:16:00,
2013-02-05 20:22:00,46.5,42.5,30.02,SW,225,0.0,0.0,86,0.00,,,0.01,0,Wunderground v.1.15,2013-02-06 04:22:00,
2013-02-05 20:28:00,46.2,42.2,30.02,SW,225,0.0,0.0,86,0.00,,,0.01,0,Wunderground v.1.15,2013-02-06 04:28:00,
2013-02-05 20:34:00,46.1,42.1,30.02,SW,225,0.0,0.0,86,0.00,,,0.01,0,Wunderground v.1.15,2013-02-06 04:34:00,
2013-02-05 20:40:00,46.0,42.0,30.02,SW,225,0.0,0.0,86,0.00,,,0.01,0,Wunderground v.1.15,2013-02-06 04:40:00,
2013-02-05 20:46:00,45.8,42.2,30.02,SW,225,0.0,0.0,87,0.00,,,0.01,0,Wunderground v.1.15,2013-02-06 04:46:00,
2013-02-05 20:52:00,45.6,42.0,30.02,SW,225,0.0,0.0,87,0.00,,,0.01,0,Wunderground v.1.15,2013-02-06 04:52:00,
2013-02-05 20:58:00,45.4,41.8,30.03,SW,225,0.0,0.0,87,0.00,,,0.01,0,Wunderground v.1.15,2013-02-06 04:58:00,
2013-02-05 21:00:00,45.3,41.7,30.03,SW,225,0.0,0.0,87,0.00,,,0.01,0,Wunderground v.1.15,2013-02-06 05:00:00,
2013-02-05 21:04:00,45.1,41.5,30.03,SW,225,0.0,0.0,87,0.00,,,0.01,0,Wunderground v.1.15,2013-02-06 05:04:00,
2013-02-05 21:06:00,45.0,41.4,30.03,SW,225,0.0,0.0,87,0.00,,,0.01,0,Wunderground v.1.15,2013-02-06 05:06:00,
2013-02-05 21:12:00,44.9,41.3,30.03,SW,225,0.0,0.0,87,0.00,,,0.01,0,Wunderground v.1.15,2013-02-06 05:12:00,
2013-02-05 21:16:00,44.7,41.1,30.03,SW,225,0.0,0.0,87,0.00,,,0.01,0,Wunderground v.1.15,2013-02-06 05:16:00,
2013-02-05 21:22:00,44.5,40.9,30.03,SW,225,0.0,0.0,87,0.00,,,0.01,0,Wunderground v.1.15,2013-02-06 05:22:00,
2013-02-05 21:28:00,44.3,40.7,30.03,SW,225,0.0,0.0,87,0.00,,,0.01,0,Wunderground v.1.15,2013-02-06 05:28:00,
2013-02-05 21:34:00,44.2,40.9,30.04,SW,225,0.0,0.0,88,0.00,,,0.01,0,Wunderground v.1.15,2013-02-06 05:34:00,
2013-02-05 21:40:00,44.0,40.7,30.04,SW,225,0.0,0.0,88,0.00,,,0.01,0,Wunderground v.1.15,2013-02-06 05:40:00,
2013-02-05 21:46:00,43.9,40.6,30.04,SW,225,0.0,0.0,88,0.00,,,0.01,0,Wunderground v.1.15,2013-02-06 05:46:00,
2013-02-05 21:52:00,43.8,40.5,30.04,SW,225,0.0,0.0,88,0.00,,,0.01,0,Wunderground v.1.15,2013-02-06 05:52:00,
2013-02-05 21:58:00,43.6,40.3,30.04,SW,225,0.0,0.0,88,0.00,,,0.01,0,Wunderground v.1.15,2013-02-06 05:58:00,
2013-02-05 22:04:00,43.5,40.2,30.04,SW,225,0.0,0.0,88,0.00,,,0.01,0,Wunderground v.1.15,2013-02-06 06:04:00,
2013-02-05 22:10:00,43.3,40.0,30.05,SW,225,0.0,0.0,88,0.00,,,0.01,0,Wunderground v.1.15,2013-02-06 06:10:00,
2013-02-05 22:16:00,43.2,40.2,30.05,SW,225,0.0,0.0,89,0.00,,,0.01,0,Wunderground v.1.15,2013-02-06 06:16:00,
2013-02-05 22:22:00,43.1,40.1,30.05,SW,225,0.0,0.0,89,0.00,,,0.01,0,Wunderground v.1.15,2013-02-06 06:22:00,
2013-02-05 22:28:00,43.0,40.0,30.04,SW,225,0.0,0.0,89,0.00,,,0.01,0,Wunderground v.1.15,2013-02-06 06:28:00,
2013-02-05 22:34:00,43.0,40.0,30.05,SW,226,0.0,0.0,89,0.00,,,0.01,0,Wunderground v.1.15,2013-02-06 06:34:00,
2013-02-05 22:40:00,43.0,40.0,30.05,SW,226,0.0,0.0,89,0.00,,,0.01,0,Wunderground v.1.15,2013-02-06 06:40:00,
2013-02-05 22:46:00,43.0,40.0,30.06,SW,232,0.0,0.0,89,0.00,,,0.01,0,Wunderground v.1.15,2013-02-06 06:46:00,
2013-02-05 22:52:00,43.1,40.1,30.06,SW,236,0.0,0.0,89,0.00,,,0.01,0,Wunderground v.1.15,2013-02-06 06:52:00,
2013-02-05 22:58:00,43.1,40.1,30.06,WSW,246,0.0,0.0,89,0.00,,,0.01,0,Wunderground v.1.15,2013-02-06 06:58:00,
2013-02-05 23:04:00,43.1,40.1,30.06,WSW,246,0.0,0.0,89,0.00,,,0.01,0,Wunderground v.1.15,2013-02-06 07:04:00,
2013-02-05 23:10:00,43.1,40.1,30.06,WSW,246,0.0,0.0,89,0.00,,,0.01,0,Wunderground v.1.15,2013-02-06 07:10:00,
2013-02-05 23:16:00,43.1,40.1,30.07,WSW,251,0.0,0.0,89,0.00,,,0.01,0,Wunderground v.1.15,2013-02-06 07:16:00,
2013-02-05 23:22:00,43.1,40.4,30.07,WSW,253,0.0,0.0,90,0.00,,,0.01,0,Wunderground v.1.15,2013-02-06 07:22:00,
2013-02-05 23:28:00,43.1,40.4,30.07,WSW,253,0.0,0.0,90,0.00,,,0.01,0,Wunderground v.1.15,2013-02-06 07:28:00,
2013-02-05 23:34:00,43.0,40.3,30.07,WSW,253,0.0,0.0,90,0.00,,,0.01,0,Wunderground v.1.15,2013-02-06 07:34:00,
2013-02-05 23:40:00,42.9,40.2,30.07,WSW,253,0.0,0.0,90,0.00,,,0.01,0,Wunderground v.1.15,2013-02-06 07:40:00,
2013-02-05 23:46:00,43.0,40.3,30.07,WSW,253,0.0,0.0,90,0.00,,,0.01,0,Wunderground v.1.15,2013-02-06 07:46:00,
2013-02-05 23:52:00,43.1,40.4,30.07,West,269,0.0,1.0,90,0.00,,,0.01,0,Wunderground v.1.15,2013-02-06 07:52:00,
2013-02-05 23:58:00,43.0,40.3,30.07,West,269,0.0,1.0,90,0.00,,,0.01,0,Wunderground v.1.15,2013-02-06 07:58:00,